QPF
0.00 0.01 0.01 0.00 0.00 0.00 0.00 0.00 0.00 0.01 0.01 0.01 0.01 0.02 0.02 0.03 0.04 0.04 0.02 0.02 0.03 0.02 0.02 0.02 0.01 0.01 0.01 0.01 0.01 0.00 0.00 0.00 0.00 0.00 0.00 0.00 0.00 0.00 0.00 0.01 0.01 0.00 0.01
0.00 0.01 0.00 0.00 0.00 0.00 0.00 0.00 0.00 0.01 0.02 0.02 0.02 0.02 0.03 0.04 0.06 0.03 0.03 0.03 0.05 0.03 0.02 0.02 0.01 0.01 0.01 0.00 0.00 0.00 0.00 0.00 0.00 0.00 0.00 0.00 0.00 0.00 0.00 0.00 0.00 0.00 0.01
0.01 0.01 0.00 0.00 0.00 0.00 0.00 0.00 0.00 0.01 0.03 0.03 0.03 0.04 0.05 0.05 0.05 0.04 0.05 0.05 0.03 0.04 0.02 0.01 0.00 0.00 0.00 0.00 0.00 0.00 0.00 0.00 0.00 0.00 0.00 0.00 0.00 0.00 0.00 0.00 0.00 0.01 0.01
0.01 0.01 0.01 0.00 0.00 0.00 0.00 0.00 0.01 0.01 0.03 0.03 0.04 0.06 0.06 0.05 0.04 0.04 0.06 0.03 0.02 0.03 0.01 0.00 0.00 0.00 0.00 0.00 0.00 0.00 0.00 0.00 0.00 0.00 0.00 0.00 0.00 0.00 0.00 0.00 0.00 0.00 0.00
0.01 0.02 0.01 0.00 0.01 0.00 0.00 0.01 0.01 0.01 0.02 0.03 0.05 0.08 0.08 0.06 0.05 0.06 0.04 0.01 0.03 0.02 0.00 0.00 0.00 0.00 0.00 0.00 0.00 0.00 0.00 0.00 0.00 0.00 0.00 0.00 0.00 0.00 0.00 0.00 0.00 0.00 0.00
0.02 0.04 0.04 0.02 0.02 0.01 0.00 0.01 0.01 0.01 0.02 0.04 0.05 0.07 0.09 0.07 0.05 0.05 0.02 0.01 0.02 0.01 0.00 0.00 0.00 0.00 0.00 0.00 0.00 0.00 0.00 0.00 0.00 0.00 0.00 0.00 0.00 0.00 0.00 0.00 0.00 0.00 0.00
0.04 0.05 0.05 0.04 0.03 0.02 0.01 0.01 0.01 0.02 0.03 0.04 0.05 0.07 0.10 0.08 0.04 0.03 0.02 0.01 0.01 0.00 0.00 0.00 0.00 0.00 0.00 0.00 0.00 0.00 0.00 0.00 0.00 0.00 0.00 0.00 0.00 0.00 0.00 0.00 0.00 0.00 0.00
0.05 0.06 0.06 0.05 0.04 0.03 0.02 0.01 0.01 0.02 0.03 0.04 0.05 0.07 0.09 0.08 0.03 0.02 0.02 0.01 0.00 0.00 0.00 0.00 0.00 0.00 0.00 0.00 0.00 0.00 0.00 0.00 0.00 0.00 0.00 0.00 0.00 0.00 0.00 0.00 0.00 0.00 0.00
0.10 0.11 0.09 0.06 0.04 0.03 0.03 0.02 0.02 0.03 0.03 0.04 0.05 0.07 0.07 0.06 0.03 0.01 0.02 0.01 0.00 0.00 0.00 0.00 0.00 0.00 0.00 0.00 0.00 0.00 0.00 0.00 0.00 0.00 0.00 0.00 0.00 0.00 0.00 0.00 0.00 0.00 0.00
0.19 0.14 0.11 0.10 0.06 0.04 0.03 0.02 0.02 0.04 0.03 0.04 0.04 0.04 0.05 0.04 0.03 0.01 0.01 0.01 0.00 0.00 0.00 0.00 0.00 0.00 0.00 0.00 0.00 0.00 0.00 0.00 0.00 0.00 0.00 0.00 0.00 0.00 0.00 0.00 0.00 0.00 0.00
0.27 0.22 0.15 0.14 0.11 0.07 0.04 0.03 0.03 0.04 0.03 0.02 0.02 0.03 0.03 0.03 0.02 0.01 0.01 0.00 0.00 0.00 0.00 0.00 0.00 0.00 0.00 0.00 0.00 0.00 0.00 0.00 0.00 0.00 0.00 0.00 0.00 0.00 0.00 0.01 0.00 0.00 0.00
0.25 0.26 0.22 0.19 0.16 0.13 0.08 0.05 0.04 0.04 0.03 0.01 0.02 0.02 0.02 0.03 0.02 0.01 0.01 0.01 0.00 0.00 0.00 0.00 0.00 0.00 0.00 0.00 0.00 0.00 0.00 0.00 0.00 0.00 0.00 0.00 0.00 0.00 0.00 0.01 0.00 0.00 0.00
0.25 0.31 0.28 0.24 0.24 0.20 0.13 0.07 0.05 0.05 0.03 0.02 0.01 0.02 0.02 0.02 0.02 0.01 0.01 0.01 0.00 0.00 0.00 0.00 0.00 0.00 0.00 0.00 0.00 0.00 0.00 0.00 0.00 0.00 0.00 0.00 0.00 0.00 0.00 0.00 0.00 0.01 0.01
0.30 0.33 0.30 0.28 0.27 0.26 0.19 0.10 0.06 0.05 0.04 0.02 0.02 0.01 0.01 0.02 0.02 0.01 0.01 0.01 0.00 0.00 0.00 0.00 0.00 0.00 0.00 0.00 0.00 0.00 0.00 0.00 0.00 0.00 0.00 0.00 0.00 0.00 0.00 0.00 0.00 0.01 0.01
0.28 0.32 0.31 0.27 0.29 0.27 0.23 0.17 0.09 0.04 0.03 0.02 0.02 0.01 0.01 0.01 0.02 0.01 0.00 0.00 0.00 0.00 0.00 0.00 0.00 0.00 0.00 0.00 0.00 0.00 0.00 0.00 0.00 0.00 0.00 0.00 0.00 0.00 0.00 0.00 0.00 0.01 0.02
0.21 0.30 0.30 0.27 0.29 0.29 0.23 0.19 0.13 0.06 0.04 0.02 0.02 0.01 0.01 0.01 0.01 0.01 0.00 0.00 0.00 0.00 0.00 0.00 0.00 0.00 0.00 0.00 0.00 0.00 0.00 0.00 0.00 0.00 0.00 0.00 0.00 0.00 0.00 0.00 0.01 0.01 0.02
0.22 0.26 0.32 0.31 0.32 0.30 0.27 0.19 0.13 0.09 0.06 0.03 0.02 0.01 0.01 0.02 0.01 0.01 0.01 0.00 0.00 0.00 0.00 0.00 0.00 0.00 0.00 0.00 0.00 0.00 0.00 0.00 0.00 0.00 0.00 0.00 0.00 0.00 0.00 0.00 0.00 0.01 0.01
0.27 0.24 0.29 0.35 0.36 0.33 0.31 0.25 0.16 0.11 0.07 0.05 0.03 0.02 0.02 0.02 0.02 0.01 0.01 0.01 0.00 0.00 0.00 0.00 0.00 0.00 0.00 0.01 0.01 0.01 0.00 0.00 0.00 0.00 0.00 0.00 0.00 0.00 0.00 0.00 0.00 0.01 0.01
0.32 0.31 0.33 0.34 0.37 0.35 0.32 0.29 0.21 0.13 0.08 0.06 0.03 0.02 0.02 0.02 0.02 0.02 0.01 0.01 0.01 0.01 0.01 0.00 0.00 0.01 0.02 0.02 0.02 0.01 0.00 0.00 0.00 0.00 0.00 0.00 0.00 0.00 0.00 0.00 0.00 0.00 0.01
0.37 0.34 0.37 0.38 0.37 0.37 0.34 0.33 0.26 0.17 0.11 0.07 0.05 0.03 0.02 0.01 0.02 0.02 0.01 0.01 0.01 0.02 0.01 0.02 0.02 0.03 0.03 0.03 0.02 0.01 0.00 0.00 0.00 0.00 0.00 0.00 0.00 0.00 0.00 0.00 0.00 0.00 0.00
0.32 0.33 0.32 0.36 0.34 0.37 0.38 0.34 0.27 0.19 0.13 0.09 0.07 0.05 0.03 0.02 0.02 0.02 0.02 0.02 0.02 0.02 0.03 0.04 0.04 0.04 0.04 0.03 0.02 0.01 0.00 0.00 0.00 0.00 0.00 0.00 0.00 0.00 0.00 0.00 0.00 0.00 0.00
0.24 0.31 0.31 0.33 0.34 0.31 0.32 0.31 0.26 0.20 0.14 0.09 0.05 0.04 0.04 0.03 0.03 0.03 0.02 0.02 0.03 0.03 0.04 0.05 0.05 0.05 0.04 0.03 0.02 0.01 0.00 0.00 0.00 0.00 0.00 0.00 0.00 0.00 0.00 0.00 0.00 0.00 0.00
0.25 0.29 0.31 0.33 0.36 0.30 0.28 0.30 0.27 0.23 0.19 0.13 0.08 0.06 0.05 0.04 0.04 0.04 0.04 0.03 0.03 0.03 0.03 0.04 0.04 0.03 0.03 0.03 0.02 0.01 0.01 0.01 0.01 0.00 0.00 0.00 0.00 0.00 0.00 0.00 0.00 0.00 0.00
0.24 0.27 0.29 0.32 0.37 0.31 0.29 0.32 0.30 0.25 0.21 0.16 0.12 0.09 0.08 0.07 0.06 0.05 0.05 0.05 0.05 0.04 0.04 0.04 0.05 0.04 0.04 0.04 0.02 0.02 0.02 0.01 0.01 0.01 0.00 0.00 0.00 0.00 0.00 0.00 0.00 0.00 0.00
0.21 0.26 0.29 0.29 0.32 0.33 0.30 0.32 0.32 0.27 0.23 0.19 0.15 0.10 0.07 0.07 0.07 0.07 0.07 0.07 0.07 0.08 0.07 0.06 0.06 0.05 0.05 0.04 0.04 0.04 0.03 0.03 0.03 0.02 0.01 0.00 0.00 0.00 0.00 0.00 0.00 0.00 0.00
0.20 0.25 0.28 0.29 0.30 0.33 0.31 0.28 0.30 0.29 0.25 0.18 0.16 0.13 0.09 0.08 0.06 0.06 0.08 0.07 0.06 0.07 0.08 0.07 0.06 0.06 0.05 0.05 0.05 0.05 0.04 0.03 0.03 0.03 0.02 0.01 0.00 0.00 0.00 0.00 0.00 0.00 0.00
MSLP
1007.99 1008.26 1008.63 1009.10 1009.63 1010.16 1010.65 1011.07 1011.41 1011.68 1011.91 1012.14 1012.40 1012.72 1013.09 1013.50 1013.93 1014.33 1014.69 1014.98 1015.21 1015.41 1015.58 1015.75 1015.93 1016.12 1016.31 1016.50 1016.66 1016.78 1016.87 1016.93 1016.98 1017.04 1017.09 1017.13 1017.17 1017.18 1017.15 1017.08 1016.99 1016.89 1016.79
1007.78 1008.12 1008.56 1009.08 1009.64 1010.20 1010.69 1011.11 1011.44 1011.70 1011.92 1012.14 1012.42 1012.76 1013.17 1013.63 1014.11 1014.56 1014.95 1015.28 1015.55 1015.76 1015.95 1016.13 1016.31 1016.49 1016.67 1016.83 1016.96 1017.05 1017.12 1017.18 1017.24 1017.31 1017.39 1017.48 1017.55 1017.58 1017.57 1017.51 1017.40 1017.28 1017.16
1007.53 1007.94 1008.45 1009.03 1009.63 1010.22 1010.73 1011.16 1011.49 1011.74 1011.96 1012.19 1012.48 1012.84 1013.27 1013.75 1014.25 1014.73 1015.15 1015.51 1015.80 1016.04 1016.25 1016.45 1016.64 1016.82 1016.98 1017.11 1017.20 1017.27 1017.31 1017.36 1017.42 1017.51 1017.62 1017.74 1017.85 1017.93 1017.94 1017.89 1017.79 1017.66 1017.53
1007.28 1007.75 1008.32 1008.95 1009.60 1010.22 1010.76 1011.21 1011.55 1011.82 1012.05 1012.29 1012.58 1012.94 1013.37 1013.86 1014.36 1014.85 1015.28 1015.66 1015.98 1016.25 1016.50 1016.72 1016.92 1017.10 1017.25 1017.36 1017.43 1017.46 1017.48 1017.50 1017.55 1017.65 1017.79 1017.94 1018.09 1018.20 1018.25 1018.23 1018.15 1018.03 1017.90
1007.09 1007.60 1008.21 1008.88 1009.56 1010.21 1010.78 1011.25 1011.62 1011.90 1012.15 1012.40 1012.70 1013.06 1013.49 1013.96 1014.46 1014.94 1015.38 1015.77 1016.12 1016.42 1016.70 1016.96 1017.19 1017.39 1017.54 1017.63 1017.67 1017.67 1017.66 1017.66 1017.69 1017.79 1017.93 1018.11 1018.28 1018.43 1018.51 1018.52 1018.46 1018.35 1018.23
1006.98 1007.52 1008.15 1008.83 1009.53 1010.19 1010.78 1011.27 1011.66 1011.98 1012.26 1012.54 1012.85 1013.21 1013.64 1014.10 1014.58 1015.04 1015.48 1015.89 1016.25 1016.59 1016.90 1017.20 1017.46 1017.68 1017.84 1017.93 1017.96 1017.93 1017.89 1017.86 1017.87 1017.95 1018.09 1018.27 1018.46 1018.62 1018.72 1018.75 1018.72 1018.63 1018.53
1007.00 1007.53 1008.15 1008.82 1009.51 1010.16 1010.76 1011.27 1011.69 1012.04 1012.36 1012.67 1013.02 1013.40 1013.83 1014.28 1014.75 1015.21 1015.64 1016.04 1016.42 1016.79 1017.14 1017.46 1017.76 1018.00 1018.17 1018.26 1018.28 1018.24 1018.17 1018.11 1018.10 1018.16 1018.28 1018.45 1018.63 1018.80 1018.91 1018.96 1018.94 1018.87 1018.79
1007.11 1007.62 1008.21 1008.85 1009.50 1010.14 1010.72 1011.24 1011.69 1012.08 1012.45 1012.81 1013.20 1013.62 1014.06 1014.52 1014.99 1015.44 1015.87 1016.27 1016.66 1017.04 1017.40 1017.75 1018.06 1018.32 1018.50 1018.59 1018.60 1018.54 1018.46 1018.38 1018.35 1018.39 1018.49 1018.64 1018.81 1018.97 1019.08 1019.13 1019.13 1019.08 1019.00
1007.30 1007.77 1008.32 1008.91 1009.52 1010.12 1010.68 1011.20 1011.68 1012.11 1012.53 1012.96 1013.40 1013.86 1014.33 1014.82 1015.29 1015.74 1016.16 1016.56 1016.95 1017.32 1017.69 1018.03 1018.34 1018.59 1018.76 1018.85 1018.85 1018.80 1018.71 1018.62 1018.58 1018.60 1018.69 1018.82 1018.98 1019.12 1019.23 1019.28 1019.28 1019.23 1019.17
1007.52 1007.95 1008.45 1008.98 1009.54 1010.10 1010.65 1011.17 1011.66 1012.14 1012.61 1013.09 1013.59 1014.10 1014.61 1015.12 1015.61 1016.06 1016.48 1016.88 1017.25 1017.60 1017.94 1018.26 1018.54 1018.77 1018.92 1018.99 1018.99 1018.93 1018.85 1018.77 1018.73 1018.75 1018.83 1018.95 1019.10 1019.23 1019.33 1019.38 1019.37 1019.34 1019.28
1007.73 1008.12 1008.57 1009.06 1009.57 1010.09 1010.61 1011.13 1011.64 1012.15 1012.67 1013.20 1013.75 1014.30 1014.85 1015.39 1015.89 1016.35 1016.77 1017.15 1017.50 1017.82 1018.12 1018.39 1018.63 1018.81 1018.93 1018.98 1018.97 1018.92 1018.84 1018.78 1018.76 1018.79 1018.88 1019.00 1019.14 1019.26 1019.35 1019.40 1019.40 1019.37 1019.32
1007.89 1008.24 1008.65 1009.09 1009.57 1010.07 1010.58 1011.09 1011.62 1012.16 1012.71 1013.28 1013.85 1014.43 1015.01 1015.55 1016.07 1016.53 1016.95 1017.32 1017.64 1017.93 1018.19 1018.41 1018.59 1018.72 1018.80 1018.82 1018.80 1018.75 1018.70 1018.66 1018.67 1018.72 1018.82 1018.94 1019.08 1019.20 1019.29 1019.34 1019.34 1019.31 1019.27
1007.95 1008.28 1008.65 1009.07 1009.53 1010.01 1010.52 1011.05 1011.59 1012.14 1012.71 1013.29 1013.87 1014.46 1015.03 1015.58 1016.09 1016.56 1016.98 1017.34 1017.65 1017.92 1018.13 1018.31 1018.43 1018.52 1018.55 1018.55 1018.53 1018.49 1018.45 1018.45 1018.48 1018.55 1018.66 1018.79 1018.93 1019.05 1019.13 1019.18 1019.19 1019.16 1019.14
1007.91 1008.21 1008.56 1008.97 1009.42 1009.91 1010.43 1010.97 1011.53 1012.09 1012.66 1013.23 1013.80 1014.36 1014.91 1015.45 1015.95 1016.42 1016.84 1017.21 1017.52 1017.78 1017.97 1018.12 1018.21 1018.26 1018.27 1018.25 1018.22 1018.19 1018.18 1018.20 1018.25 1018.34 1018.46 1018.59 1018.72 1018.83 1018.90 1018.95 1018.96 1018.95 1018.94
1007.76 1008.03 1008.37 1008.77 1009.24 1009.75 1010.29 1010.86 1011.44 1012.01 1012.57 1013.11 1013.64 1014.16 1014.67 1015.17 1015.66 1016.12 1016.55 1016.94 1017.27 1017.54 1017.74 1017.89 1017.97 1018.01 1018.01 1017.99 1017.96 1017.95 1017.96 1018.00 1018.06 1018.15 1018.26 1018.38 1018.49 1018.57 1018.64 1018.68 1018.69 1018.70 1018.71
1007.51 1007.76 1008.09 1008.50 1008.99 1009.53 1010.12 1010.73 1011.33 1011.91 1012.45 1012.96 1013.44 1013.90 1014.35 1014.81 1015.26 1015.72 1016.16 1016.58 1016.95 1017.25 1017.49 1017.66 1017.76 1017.81 1017.83 1017.83 1017.82 1017.83 1017.85 1017.90 1017.97 1018.05 1018.14 1018.22 1018.29 1018.35 1018.39 1018.42 1018.44 1018.46 1018.50
1007.19 1007.43 1007.76 1008.19 1008.71 1009.30 1009.94 1010.59 1011.23 1011.82 1012.35 1012.82 1013.25 1013.64 1014.03 1014.43 1014.86 1015.30 1015.76 1016.20 1016.61 1016.97 1017.26 1017.47 1017.61 1017.71 1017.76 1017.79 1017.81 1017.85 1017.89 1017.94 1018.00 1018.06 1018.11 1018.15 1018.18 1018.20 1018.21 1018.23 1018.25 1018.29 1018.35
1006.85 1007.08 1007.42 1007.87 1008.43 1009.08 1009.78 1010.49 1011.17 1011.78 1012.31 1012.75 1013.13 1013.46 1013.79 1014.14 1014.53 1014.95 1015.41 1015.88 1016.33 1016.73 1017.07 1017.34 1017.53 1017.68 1017.77 1017.85 1017.91 1017.98 1018.04 1018.10 1018.15 1018.18 1018.20 1018.19 1018.17 1018.15 1018.13 1018.13 1018.16 1018.22 1018.30
1006.54 1006.78 1007.13 1007.61 1008.22 1008.92 1009.68 1010.45 1011.18 1011.82 1012.36 1012.79 1013.13 1013.42 1013.69 1013.99 1014.33 1014.73 1015.18 1015.65 1016.12 1016.56 1016.94 1017.25 1017.50 1017.69 1017.84 1017.97 1018.07 1018.17 1018.26 1018.33 1018.37 1018.38 1018.36 1018.31 1018.26 1018.20 1018.16 1018.15 1018.18 1018.25 1018.36
1006.31 1006.57 1006.94 1007.46 1008.10 1008.86 1009.67 1010.50 1011.27 1011.95 1012.51 1012.94 1013.26 1013.52 1013.76 1014.01 1014.31 1014.68 1015.10 1015.56 1016.02 1016.46 1016.86 1017.20 1017.48 1017.71 1017.91 1018.08 1018.23 1018.37 1018.48 1018.56 1018.61 1018.61 1018.57 1018.50 1018.41 1018.33 1018.28 1018.27 1018.31 1018.39 1018.51
1006.19 1006.48 1006.89 1007.43 1008.11 1008.90 1009.76 1010.62 1011.44 1012.15 1012.73 1013.18 1013.51 1013.76 1013.97 1014.20 1014.46 1014.78 1015.16 1015.57 1016.01 1016.42 1016.81 1017.15 1017.45 1017.70 1017.93 1018.14 1018.33 1018.50 1018.64 1018.75 1018.81 1018.81 1018.77 1018.69 1018.60 1018.52 1018.47 1018.46 1018.51 1018.61 1018.74
1006.22 1006.55 1006.98 1007.55 1008.25 1009.05 1009.93 1010.81 1011.65 1012.39 1013.00 1013.47 1013.81 1014.07 1014.28 1014.48 1014.71 1014.99 1015.32 1015.68 1016.06 1016.43 1016.77 1017.09 1017.38 1017.64 1017.88 1018.11 1018.34 1018.54 1018.72 1018.86 1018.94 1018.96 1018.93 1018.87 1018.79 1018.72 1018.68 1018.69 1018.75 1018.86 1019.00
1006.40 1006.76 1007.21 1007.79 1008.49 1009.28 1010.15 1011.02 1011.86 1012.61 1013.23 1013.73 1014.10 1014.38 1014.60 1014.80 1015.01 1015.24 1015.52 1015.81 1016.12 1016.43 1016.72 1017.00 1017.26 1017.51 1017.76 1018.01 1018.25 1018.49 1018.70 1018.86 1018.98 1019.03 1019.03 1019.00 1018.95 1018.91 1018.90 1018.93 1019.01 1019.12 1019.25
1006.73 1007.11 1007.57 1008.13 1008.80 1009.56 1010.38 1011.21 1012.02 1012.75 1013.38 1013.89 1014.29 1014.60 1014.84 1015.05 1015.25 1015.46 1015.68 1015.92 1016.16 1016.40 1016.64 1016.87 1017.10 1017.33 1017.58 1017.84 1018.10 1018.36 1018.60 1018.80 1018.94 1019.03 1019.07 1019.08 1019.07 1019.06 1019.08 1019.14 1019.23 1019.36 1019.48
1007.18 1007.56 1008.01 1008.54 1009.16 1009.85 1010.59 1011.36 1012.10 1012.80 1013.41 1013.92 1014.34 1014.67 1014.94 1015.17 1015.37 1015.57 1015.76 1015.95 1016.14 1016.33 1016.51 1016.70 1016.90 1017.12 1017.36 1017.63 1017.91 1018.19 1018.45 1018.68 1018.86 1018.98 1019.06 1019.11 1019.14 1019.18 1019.23 1019.32 1019.43 1019.55 1019.68
1007.73 1008.10 1008.52 1009.00 1009.54 1010.14 1010.79 1011.46 1012.12 1012.75 1013.32 1013.81 1014.24 1014.59 1014.89 1015.14 1015.35 1015.55 1015.72 1015.88 1016.03 1016.18 1016.33 1016.49 1016.68 1016.89 1017.14 1017.42 1017.71 1018.01 1018.29 1018.54 1018.75 1018.91 1019.02 1019.11 1019.18 1019.26 1019.35 1019.46 1019.59 1019.72 1019.84
Thickness
5778 5778 5773 5771 5770 5769 5768 5767 5766 5764 5763 5761 5759 5756 5754 5752 5751 5749 5747 5745 5743 5742 5740 5738 5737 5735 5734 5732 5731 5731 5730 5730 5730 5729 5729 5729 5729 5729 5729 5729 5728 5727 5726
5778 5774 5770 5767 5766 5765 5764 5763 5762 5761 5760 5758 5756 5754 5752 5750 5748 5746 5744 5743 5741 5739 5737 5735 5733 5732 5730 5729 5728 5728 5727 5727 5727 5726 5726 5726 5726 5726 5725 5725 5724 5724 5723
5772 5769 5764 5763 5761 5761 5760 5759 5758 5757 5756 5755 5753 5751 5749 5747 5745 5744 5742 5740 5738 5736 5734 5732 5730 5729 5727 5726 5725 5725 5725 5725 5725 5725 5724 5723 5723 5722 5722 5721 5721 5720 5719
5765 5762 5759 5757 5756 5756 5756 5755 5754 5753 5753 5751 5750 5748 5746 5744 5742 5741 5739 5737 5735 5733 5731 5729 5727 5725 5724 5722 5722 5722 5722 5723 5723 5723 5722 5721 5720 5719 5719 5718 5717 5717 5716
5757 5755 5753 5751 5751 5751 5751 5750 5750 5749 5748 5747 5746 5744 5743 5741 5739 5737 5735 5733 5731 5729 5727 5725 5723 5722 5720 5720 5719 5719 5719 5720 5720 5720 5719 5718 5717 5716 5715 5714 5714 5713 5712
5748 5749 5746 5745 5745 5745 5745 5745 5745 5745 5744 5743 5742 5740 5739 5737 5735 5733 5731 5729 5727 5725 5723 5721 5720 5718 5717 5716 5716 5716 5716 5717 5718 5717 5716 5714 5713 5713 5712 5711 5710 5709 5709
5739 5740 5738 5738 5738 5739 5739 5740 5740 5740 5739 5739 5737 5736 5734 5733 5731 5729 5727 5725 5723 5721 5719 5718 5716 5715 5714 5713 5713 5713 5713 5714 5715 5714 5713 5711 5710 5709 5708 5707 5707 5706 5705
5731 5731 5730 5731 5732 5733 5733 5734 5734 5734 5734 5734 5733 5731 5730 5728 5726 5724 5722 5721 5719 5717 5716 5714 5713 5712 5711 5710 5710 5710 5711 5711 5712 5711 5710 5708 5707 5706 5705 5704 5703 5702 5701
5721 5722 5722 5723 5724 5726 5727 5727 5728 5728 5728 5728 5727 5726 5725 5723 5721 5720 5718 5716 5715 5714 5712 5711 5710 5709 5708 5707 5707 5708 5708 5709 5709 5709 5707 5705 5704 5703 5702 5701 5700 5699 5698
5710 5712 5714 5716 5717 5718 5720 5721 5722 5722 5722 5722 5722 5720 5719 5718 5716 5715 5713 5712 5711 5710 5708 5707 5706 5705 5704 5704 5704 5705 5705 5706 5706 5706 5704 5702 5701 5700 5698 5698 5697 5696 5694
5698 5702 5706 5709 5711 5712 5713 5714 5715 5715 5716 5716 5715 5715 5714 5713 5712 5710 5709 5707 5706 5705 5704 5703 5703 5702 5701 5701 5701 5702 5703 5704 5704 5703 5701 5699 5698 5696 5695 5694 5693 5693 5691
5687 5693 5698 5701 5704 5706 5707 5707 5708 5709 5709 5710 5709 5709 5709 5709 5708 5706 5704 5703 5702 5701 5700 5700 5699 5699 5699 5699 5699 5699 5700 5701 5702 5701 5698 5697 5695 5693 5692 5691 5690 5689 5688
5680 5685 5690 5694 5696 5700 5701 5702 5703 5703 5704 5705 5705 5705 5706 5705 5704 5702 5700 5698 5698 5697 5696 5696 5696 5696 5696 5697 5697 5697 5698 5699 5699 5698 5695 5693 5692 5690 5689 5688 5687 5686 5685
5670 5676 5681 5686 5689 5692 5694 5696 5698 5699 5700 5701 5702 5702 5703 5702 5700 5698 5697 5695 5695 5694 5694 5693 5693 5694 5695 5696 5696 5696 5696 5696 5695 5694 5691 5690 5689 5687 5686 5685 5684 5683 5681
5661 5668 5673 5679 5682 5685 5687 5689 5691 5693 5695 5697 5697 5698 5699 5698 5697 5695 5694 5693 5693 5692 5692 5691 5692 5692 5693 5693 5693 5693 5692 5692 5692 5691 5688 5686 5685 5684 5682 5681 5680 5679 5678
5652 5659 5665 5670 5675 5678 5680 5681 5683 5687 5689 5691 5693 5694 5694 5693 5693 5692 5691 5690 5690 5690 5689 5689 5689 5690 5690 5690 5689 5689 5688 5688 5687 5686 5684 5682 5681 5679 5678 5676 5675 5674 5673
5642 5650 5657 5663 5667 5671 5673 5675 5677 5680 5682 5685 5687 5688 5689 5689 5689 5688 5687 5686 5686 5686 5685 5685 5686 5686 5685 5685 5684 5684 5683 5682 5682 5681 5679 5678 5676 5674 5673 5671 5670 5669 5667
5635 5642 5649 5655 5661 5664 5667 5669 5671 5673 5676 5678 5680 5682 5683 5684 5684 5683 5683 5682 5682 5681 5681 5680 5680 5679 5679 5678 5677 5677 5677 5676 5675 5675 5674 5672 5670 5668 5666 5665 5663 5662 5661
5627 5635 5642 5647 5653 5656 5659 5662 5665 5667 5670 5672 5674 5676 5677 5678 5678 5678 5678 5678 5677 5677 5676 5675 5675 5674 5672 5671 5671 5671 5671 5670 5669 5668 5667 5665 5663 5662 5660 5658 5656 5654 5653
5623 5629 5636 5641 5646 5649 5653 5655 5657 5660 5662 5665 5667 5669 5671 5672 5672 5672 5673 5673 5672 5671 5670 5669 5668 5668 5666 5665 5665 5664 5664 5663 5663 5661 5660 5658 5656 5654 5652 5650 5648 5646 5644
5619 5625 5631 5635 5641 5644 5646 5648 5650 5653 5656 5658 5661 5663 5664 5665 5666 5667 5667 5667 5666 5665 5664 5663 5662 5660 5659 5658 5655 5653 5654 5656 5656 5654 5653 5650 5648 5646 5644 5642 5640 5637 5635
5614 5620 5626 5630 5636 5640 5642 5645 5647 5650 5651 5653 5655 5657 5658 5659 5660 5661 5661 5661 5660 5658 5657 5657 5655 5653 5651 5651 5647 5643 5641 5642 5645 5647 5644 5642 5640 5638 5635 5633 5630 5628 5626
5608 5615 5621 5626 5631 5635 5637 5639 5641 5642 5642 5644 5646 5649 5651 5652 5653 5654 5654 5654 5653 5652 5651 5650 5649 5646 5643 5643 5643 5639 5634 5632 5634 5635 5635 5634 5631 5629 5626 5623 5621 5618 5616
5605 5612 5618 5623 5626 5629 5632 5633 5635 5636 5637 5640 5641 5642 5644 5645 5646 5647 5647 5647 5646 5645 5644 5643 5643 5641 5639 5635 5635 5635 5633 5631 5626 5623 5624 5624 5623 5620 5617 5615 5612 5609 5606
5603 5609 5614 5618 5620 5623 5625 5628 5631 5633 5635 5635 5635 5635 5636 5637 5638 5639 5639 5639 5639 5637 5636 5636 5635 5634 5633 5630 5628 5626 5625 5624 5622 5617 5614 5613 5612 5611 5609 5606 5603 5599 5596
5599 5605 5610 5613 5616 5617 5620 5623 5627 5628 5629 5629 5628 5627 5628 5629 5630 5630 5630 5631 5631 5630 5629 5627 5628 5626 5625 5624 5622 5620 5618 5615 5613 5611 5608 5605 5603 5601 5600 5597 5593 5590 5587